Location: Palomar Mountain Lodge
(33.3110°N, 116.8495°W)
Time: 15:36:43
(UTC-07:00)

H-2A R/B - Pass Details

Date: 12 July 2018
Orbit: 734 x 837 km, 98.3° (Epoch: 17 July)

Event Time Altitude Azimuth Distance (km) Brightness Sun altitude
Exits shadow 22:50:47 17° 233° (SW) 1,964 4.0 -27.6°
Maximum altitude 22:52:59 22° 265° (W) 1,744 4.1 -27.9°
Drops below altitude 10° 22:57:08 10° 315° (NW) 2,447 5.5 -28.3°
Sets 23:00:02 0° 330° (NNW) 3,379 6.6 -28.6°
